Time,TemperatureF,DewpointF,PressureIn,WindDirection,WindDirectionDegrees,WindSpeedMPH,WindSpeedGustMPH,Humidity,HourlyPrecipIn,Conditions,Clouds,dailyrainin,SoftwareType,DateUTC
2013-11-18 00:08:00,58.7,56.0,29.74,ESE,104,1.0,-999.0,91,-99.99,,,0.00,weatherlink.com 1.10,2013-11-18 05:08:00,
2013-11-18 00:23:00,58.9,56.0,29.72,ESE,120,2.0,-999.0,91,-99.99,,,0.00,weatherlink.com 1.10,2013-11-18 05:23:00,
2013-11-18 00:38:00,58.9,56.0,29.71,NNW,336,2.0,-999.0,91,-99.99,,,0.00,weatherlink.com 1.10,2013-11-18 05:38:00,
2013-11-18 00:55:00,59.1,57.0,29.70,North,10,0.0,-999.0,91,-99.99,,,0.00,weatherlink.com 1.10,2013-11-18 05:55:00,
2013-11-18 01:10:00,59.1,57.0,29.68,ENE,65,3.0,-999.0,91,-99.99,,,0.00,weatherlink.com 1.10,2013-11-18 06:10:00,
2013-11-18 01:25:00,59.1,57.0,29.67,SE,142,4.0,-999.0,92,-99.99,,,0.01,weatherlink.com 1.10,2013-11-18 06:25:00,
2013-11-18 01:40:00,59.1,57.0,29.66,NNE,24,7.0,-999.0,92,-99.99,,,0.01,weatherlink.com 1.10,2013-11-18 06:40:00,
2013-11-18 01:55:00,59.4,57.0,29.64,NNE,25,7.0,-999.0,92,-99.99,,,0.02,weatherlink.com 1.10,2013-11-18 06:55:00,
2013-11-18 02:10:00,59.6,57.0,29.63,East,81,0.0,-999.0,92,-99.99,,,0.05,weatherlink.com 1.10,2013-11-18 07:10:00,
2013-11-18 02:25:00,59.8,58.0,29.62,North,360,3.0,-999.0,92,-99.99,,,0.06,weatherlink.com 1.10,2013-11-18 07:25:00,
2013-11-18 02:40:00,60.0,58.0,29.62,West,279,1.0,-999.0,92,-99.99,,,0.07,weatherlink.com 1.10,2013-11-18 07:40:00,
2013-11-18 02:56:00,60.4,58.0,29.63,West,267,4.0,-999.0,93,-99.99,,,0.13,weatherlink.com 1.10,2013-11-18 07:56:00,
2013-11-18 03:12:00,60.5,59.0,29.63,WNW,290,2.0,-999.0,93,-99.99,,,0.15,weatherlink.com 1.10,2013-11-18 08:12:00,
2013-11-18 03:26:00,60.6,59.0,29.64,NW,304,12.0,-999.0,93,-99.99,,,0.17,weatherlink.com 1.10,2013-11-18 08:26:00,
2013-11-18 03:42:00,57.8,55.0,29.65,West,279,6.0,-999.0,90,-99.99,,,0.18,weatherlink.com 1.10,2013-11-18 08:42:00,
2013-11-18 03:57:00,57.0,53.0,29.64,West,281,8.0,-999.0,85,-99.99,,,0.18,weatherlink.com 1.10,2013-11-18 08:57:00,
2013-11-18 04:12:00,56.6,51.0,29.64,West,259,5.0,-999.0,82,-99.99,,,0.18,weatherlink.com 1.10,2013-11-18 09:12:00,
2013-11-18 04:27:00,56.3,52.0,29.64,West,277,3.0,-999.0,84,-99.99,,,0.18,weatherlink.com 1.10,2013-11-18 09:27:00,
2013-11-18 04:43:00,55.9,52.0,29.65,West,278,3.0,-999.0,85,-99.99,,,0.18,weatherlink.com 1.10,2013-11-18 09:43:00,
2013-11-18 04:58:00,55.0,51.0,29.64,WNW,293,5.0,-999.0,86,-99.99,,,0.18,weatherlink.com 1.10,2013-11-18 09:58:00,
2013-11-18 05:13:00,54.9,51.0,29.65,WNW,290,2.0,-999.0,85,-99.99,,,0.18,weatherlink.com 1.10,2013-11-18 10:13:00,
2013-11-18 05:28:00,54.9,49.0,29.65,WNW,294,5.0,-999.0,81,-99.99,,,0.18,weatherlink.com 1.10,2013-11-18 10:28:00,
2013-11-18 05:46:00,55.1,48.0,29.64,NW,319,8.0,-999.0,77,-99.99,,,0.18,weatherlink.com 1.10,2013-11-18 10:46:00,
2013-11-18 06:00:00,55.5,47.0,29.65,West,278,5.0,-999.0,73,-99.99,,,0.18,weatherlink.com 1.10,2013-11-18 11:00:00,
2013-11-18 06:15:00,55.8,46.0,29.64,WNW,294,4.0,-999.0,70,-99.99,,,0.18,weatherlink.com 1.10,2013-11-18 11:15:00,
2013-11-18 06:30:00,55.7,45.0,29.64,West,271,5.0,-999.0,68,-99.99,,,0.18,weatherlink.com 1.10,2013-11-18 11:30:00,
2013-11-18 06:45:00,55.5,45.0,29.66,WNW,287,3.0,-999.0,67,-99.99,,,0.18,weatherlink.com 1.10,2013-11-18 11:45:00,
2013-11-18 07:00:00,55.3,44.0,29.66,West,281,5.0,-999.0,67,-99.99,,,0.19,weatherlink.com 1.10,2013-11-18 12:00:00,
2013-11-18 07:16:00,55.4,45.0,29.67,WNW,285,9.0,-999.0,67,-99.99,,,0.19,weatherlink.com 1.10,2013-11-18 12:16:00,
2013-11-18 07:31:00,55.5,44.0,29.68,WNW,288,7.0,-999.0,66,-99.99,,,0.19,weatherlink.com 1.10,2013-11-18 12:31:00,
2013-11-18 07:46:00,55.2,44.0,29.68,WNW,282,5.0,-999.0,65,-99.99,,,0.19,weatherlink.com 1.10,2013-11-18 12:46:00,
2013-11-18 08:01:00,55.4,43.0,29.68,West,278,3.0,-999.0,64,-99.99,,,0.19,weatherlink.com 1.10,2013-11-18 13:01:00,
2013-11-18 08:17:00,55.2,44.0,29.69,WSW,248,2.0,-999.0,65,-99.99,,,0.19,weatherlink.com 1.10,2013-11-18 13:17:00,
2013-11-18 08:32:00,55.2,44.0,29.69,West,279,4.0,-999.0,65,-99.99,,,0.19,weatherlink.com 1.10,2013-11-18 13:32:00,
2013-11-18 08:47:00,55.6,42.0,29.69,WSW,257,6.0,-999.0,60,-99.99,,,0.19,weatherlink.com 1.10,2013-11-18 13:47:00,
2013-11-18 09:02:00,56.1,42.0,29.69,West,259,3.0,-999.0,59,-99.99,,,0.19,weatherlink.com 1.10,2013-11-18 14:02:00,
2013-11-18 09:17:00,56.1,41.0,29.69,SSW,209,7.0,-999.0,58,-99.99,,,0.19,weatherlink.com 1.10,2013-11-18 14:17:00,
2013-11-18 09:33:00,56.4,41.0,29.69,West,269,3.0,-999.0,56,-99.99,,,0.19,weatherlink.com 1.10,2013-11-18 14:33:00,
2013-11-18 09:48:00,56.8,41.0,29.69,West,259,3.0,-999.0,55,-99.99,,,0.19,weatherlink.com 1.10,2013-11-18 14:48:00,
2013-11-18 10:03:00,56.8,41.0,29.69,West,269,1.0,-999.0,56,-99.99,,,0.19,weatherlink.com 1.10,2013-11-18 15:03:00,
2013-11-18 10:20:00,57.2,39.0,29.69,West,261,9.0,-999.0,52,-99.99,,,0.19,weatherlink.com 1.10,2013-11-18 15:20:00,
2013-11-18 10:35:00,57.7,40.0,29.68,WNW,286,6.0,-999.0,53,-99.99,,,0.19,weatherlink.com 1.10,2013-11-18 15:35:00,
2013-11-18 10:50:00,57.8,39.0,29.68,WSW,245,4.0,-999.0,50,-99.99,,,0.19,weatherlink.com 1.10,2013-11-18 15:50:00,
2013-11-18 11:06:00,58.1,38.0,29.68,WNW,285,10.0,-999.0,48,-99.99,,,0.19,weatherlink.com 1.10,2013-11-18 16:06:00,
2013-11-18 11:20:00,58.4,39.0,29.68,WNW,282,1.0,-999.0,49,-99.99,,,0.19,weatherlink.com 1.10,2013-11-18 16:20:00,
2013-11-18 11:35:00,58.2,39.0,29.67,WNW,290,9.0,-999.0,50,-99.99,,,0.19,weatherlink.com 1.10,2013-11-18 16:35:00,
2013-11-18 11:50:00,58.7,39.0,29.67,WNW,283,3.0,-999.0,48,-99.99,,,0.19,weatherlink.com 1.10,2013-11-18 16:50:00,
2013-11-18 12:21:00,59.1,39.0,29.66,West,276,3.0,-999.0,47,-99.99,,,0.19,weatherlink.com 1.10,2013-11-18 17:21:00,
2013-11-18 12:36:00,59.2,38.0,29.65,West,273,5.0,-999.0,46,-99.99,,,0.19,weatherlink.com 1.10,2013-11-18 17:36:00,
2013-11-18 12:51:00,59.6,38.0,29.65,SW,236,12.0,-999.0,45,-99.99,,,0.19,weatherlink.com 1.10,2013-11-18 17:51:00,
2013-11-18 13:06:00,59.6,37.0,29.65,WNW,302,13.0,-999.0,43,-99.99,,,0.19,weatherlink.com 1.10,2013-11-18 18:06:00,
2013-11-18 13:22:00,59.8,38.0,29.64,West,261,5.0,-999.0,45,-99.99,,,0.19,weatherlink.com 1.10,2013-11-18 18:22:00,
2013-11-18 13:37:00,59.7,37.0,29.64,West,279,8.0,-999.0,43,-99.99,,,0.19,weatherlink.com 1.10,2013-11-18 18:37:00,
2013-11-18 13:52:00,60.2,37.0,29.64,WNW,284,5.0,-999.0,42,-99.99,,,0.19,weatherlink.com 1.10,2013-11-18 18:52:00,
2013-11-18 14:07:00,60.1,36.0,29.64,WNW,296,9.0,-999.0,40,-99.99,,,0.19,weatherlink.com 1.10,2013-11-18 19:07:00,
2013-11-18 14:23:00,59.9,35.0,29.64,West,279,7.0,-999.0,40,-99.99,,,0.19,weatherlink.com 1.10,2013-11-18 19:23:00,
2013-11-18 14:38:00,59.7,34.0,29.65,West,259,9.0,-999.0,39,-99.99,,,0.19,weatherlink.com 1.10,2013-11-18 19:38:00,
2013-11-18 14:53:00,59.3,34.0,29.65,SW,217,8.0,-999.0,39,-99.99,,,0.19,weatherlink.com 1.10,2013-11-18 19:53:00,
2013-11-18 15:10:00,59.1,33.0,29.66,NW,307,4.0,-999.0,38,-99.99,,,0.19,weatherlink.com 1.10,2013-11-18 20:10:00,
2013-11-18 15:25:00,58.8,33.0,29.66,WSW,252,9.0,-999.0,38,-99.99,,,0.19,weatherlink.com 1.10,2013-11-18 20:25:00,
2013-11-18 15:40:00,58.8,32.0,29.66,West,276,5.0,-999.0,37,-99.99,,,0.19,weatherlink.com 1.10,2013-11-18 20:40:00,
2013-11-18 15:55:00,58.3,31.0,29.67,SW,223,9.0,-999.0,36,-99.99,,,0.19,weatherlink.com 1.10,2013-11-18 20:55:00,
2013-11-18 16:10:00,57.8,31.0,29.68,West,281,5.0,-999.0,37,-99.99,,,0.19,weatherlink.com 1.10,2013-11-18 21:10:00,
2013-11-18 16:28:00,57.4,32.0,29.68,WNW,290,4.0,-999.0,38,-99.99,,,0.19,weatherlink.com 1.10,2013-11-18 21:28:00,
2013-11-18 16:40:00,57.1,31.0,29.68,WNW,290,6.0,-999.0,38,-99.99,,,0.19,weatherlink.com 1.10,2013-11-18 21:40:00,
2013-11-18 16:55:00,56.8,31.0,29.69,WNW,297,5.0,-999.0,38,-99.99,,,0.19,weatherlink.com 1.10,2013-11-18 21:55:00,
2013-11-18 17:12:00,56.3,31.0,29.69,WNW,294,6.0,-999.0,39,-99.99,,,0.19,weatherlink.com 1.10,2013-11-18 22:12:00,
2013-11-18 17:26:00,55.9,31.0,29.70,West,273,4.0,-999.0,39,-99.99,,,0.19,weatherlink.com 1.10,2013-11-18 22:26:00,
2013-11-18 17:41:00,55.6,31.0,29.70,WNW,296,8.0,-999.0,39,-99.99,,,0.19,weatherlink.com 1.10,2013-11-18 22:41:00,
2013-11-18 17:56:00,55.7,30.0,29.71,West,273,3.0,-999.0,37,-99.99,,,0.19,weatherlink.com 1.10,2013-11-18 22:56:00,
2013-11-18 18:12:00,55.4,29.0,29.72,WNW,282,6.0,-999.0,37,-99.99,,,0.19,weatherlink.com 1.10,2013-11-18 23:12:00,
2013-11-18 18:27:00,55.2,29.0,29.72,WNW,292,8.0,-999.0,37,-99.99,,,0.19,weatherlink.com 1.10,2013-11-18 23:27:00,
2013-11-18 18:42:00,54.7,29.0,29.73,WNW,296,4.0,-999.0,38,-99.99,,,0.19,weatherlink.com 1.10,2013-11-18 23:42:00,
2013-11-18 18:57:00,54.1,29.0,29.73,WNW,288,10.0,-999.0,39,-99.99,,,0.19,weatherlink.com 1.10,2013-11-18 23:57:00,
2013-11-18 19:13:00,54.0,29.0,29.74,WNW,286,7.0,-999.0,39,-99.99,,,0.19,weatherlink.com 1.10,2013-11-19 00:13:00,
2013-11-18 19:28:00,53.7,29.0,29.74,West,274,11.0,-999.0,39,-99.99,,,0.19,weatherlink.com 1.10,2013-11-19 00:28:00,
2013-11-18 19:43:00,53.4,29.0,29.75,West,281,7.0,-999.0,40,-99.99,,,0.19,weatherlink.com 1.10,2013-11-19 00:43:00,
2013-11-18 19:58:00,52.9,30.0,29.75,WNW,290,3.0,-999.0,41,-99.99,,,0.19,weatherlink.com 1.10,2013-11-19 00:58:00,
2013-11-18 20:15:00,52.1,30.0,29.76,WNW,300,6.0,-999.0,43,-99.99,,,0.19,weatherlink.com 1.10,2013-11-19 01:15:00,
2013-11-18 20:30:00,51.7,29.0,29.76,West,277,8.0,-999.0,42,-99.99,,,0.19,weatherlink.com 1.10,2013-11-19 01:30:00,
2013-11-18 20:45:00,51.4,29.0,29.77,West,264,4.0,-999.0,42,-99.99,,,0.19,weatherlink.com 1.10,2013-11-19 01:45:00,
2013-11-18 21:00:00,50.9,29.0,29.78,WNW,293,11.0,-999.0,43,-99.99,,,0.19,weatherlink.com 1.10,2013-11-19 02:00:00,
2013-11-18 21:15:00,50.5,29.0,29.78,West,260,11.0,-999.0,43,-99.99,,,0.19,weatherlink.com 1.10,2013-11-19 02:15:00,
2013-11-18 21:30:00,50.0,28.0,29.78,WNW,283,6.0,-999.0,43,-99.99,,,0.19,weatherlink.com 1.10,2013-11-19 02:30:00,
2013-11-18 21:46:00,49.6,28.0,29.79,West,280,7.0,-999.0,44,-99.99,,,0.19,weatherlink.com 1.10,2013-11-19 02:46:00,
2013-11-18 22:01:00,49.1,28.0,29.80,West,277,5.0,-999.0,45,-99.99,,,0.19,weatherlink.com 1.10,2013-11-19 03:01:00,
2013-11-18 22:16:00,48.6,28.0,29.80,West,268,5.0,-999.0,46,-99.99,,,0.19,weatherlink.com 1.10,2013-11-19 03:16:00,
2013-11-18 22:31:00,48.1,28.0,29.80,West,281,11.0,-999.0,46,-99.99,,,0.19,weatherlink.com 1.10,2013-11-19 03:31:00,
2013-11-18 22:51:00,47.6,28.0,29.81,West,265,7.0,-999.0,46,-99.99,,,0.19,weatherlink.com 1.10,2013-11-19 03:51:00,
2013-11-18 23:02:00,47.3,27.0,29.82,WNW,293,10.0,-999.0,46,-99.99,,,0.19,weatherlink.com 1.10,2013-11-19 04:02:00,
2013-11-18 23:17:00,47.0,27.0,29.82,NW,312,13.0,-999.0,46,-99.99,,,0.19,weatherlink.com 1.10,2013-11-19 04:17:00,
2013-11-18 23:32:00,46.5,27.0,29.82,West,266,15.0,-999.0,47,-99.99,,,0.19,weatherlink.com 1.10,2013-11-19 04:32:00,
2013-11-18 23:48:00,45.9,28.0,29.82,WNW,300,7.0,-999.0,49,-99.99,,,0.19,weatherlink.com 1.10,2013-11-19 04:48:00,